Tracking 28052 objects as of 24-Sep-2023
HD Live streaming from Space Station
objects crossing your sky now

STARLINK-6198

Track STARLINK-6198 now!
10-day predictions
STARLINK-6198 is classified as:


NORAD ID: 56768
Int'l Code: 2023-078B
Perigee: 363.9 km
Apogee: 368.6 km
Inclination: 70.0 °
Period: 91.7 minutes
Semi major axis: 6737 km
RCS: Unknown
Launch date: May 31, 2023
Source: United States (US)
Launch site: AIR FORCE WESTERN TEST RANGE (AFWTR)
Your satellite tracking list
Your tracking list is empty




NASA's NSSDC Master Catalog

Two Line Element Set (TLE):
1 56768U 23078B   23266.88706199  .00001179  00000-0  11570-4 0  9995
2 56768  69.9986  88.2589 0003492 271.2707  88.8089 15.69934006 18457
Source of the keplerian elements: AFSPC